Weather History for KARA - April, 2013

Change the Weather History Date:

Sunday, April 21, 2013

  Actual Average Record
Temperature  
Mean Temperature 63 °F 69 °F  
Max Temperature 77 °F 80 °F 93 °F (1987)
Min Temperature 48 °F 58 °F 39 °F (1953)
Degree Days  
Heating Degree Days 2 1  
Month to date heating degree days 40 41  
Since 1 July heating degree days 1129 1405  
Cooling Degree Days 0 5  
Month to date cooling degree days 91 81  
Year to date cooling degree days 182 164  
Growing Degree Days 12 (Base 50)    
Moisture  
Dew Point 48 °F    
Average Humidity 61    
Maximum Humidity 86    
Minimum Humidity 36    
Precipitation  
Precipitation 0.00 in 0.15 in 7.19 in (1966)
Month to date precipitation 5.29 3.13  
Year to date precipitation 24.77 16.31  
Sea Level Pressure  
Sea Level Pressure 30.16 in    
Wind  
Wind Speed 6 mph (East)    
Max Wind Speed 16 mph    
Max Gust Speed 18 mph    
Visibility 10 miles    
Events      
T = Trace of Precipitation, MM = Missing Value Source: NWS Daily Summary

Daily Weather History Graph

Daily Weather History Graph

Search for Another Location

Airport or City:

Trip Planner

Search our weather history database for the weather conditions in past years. The results will help you decide how hot, cold, wet, or windy it might be!

Date:

Astronomy

Apr. 21, 2013 Rise Set
Actual Time 6:33 AM CDT 7:38 PM CDT
Civil Twilight 6:09 AM CDT 8:03 PM CDT
Nautical Twilight 5:39 AM CDT 8:33 PM CDT
Astronomical Twilight 5:09 AM CDT 9:03 PM CDT
Moon 3:41 PM CDT (4/21) 3:37 AM CDT (4/21)
Length of Visible Light 13h 54m
Length of Day
13h 04m
Waxing Gibbous, 80% of the Moon is Illuminated
Apr 21
Waxing Gibbous
Apr 25
Full
May 2
Last Quarter
May 9
New
May 17
First Quarter

Hourly Weather History & Observations

Time (CDT) Temp. Dew Point Humidity Pressure Visibility Wind Dir Wind Speed Gust Speed Precip Events Conditions
12:53 AM 55.0 °F 44.1 °F 67% 30.18 in 10.0 mi ESE 4.6 mph - N/A   Clear
1:53 AM 53.1 °F 46.0 °F 77% 30.18 in 10.0 mi Calm Calm - N/A   Clear
2:53 AM 51.1 °F 44.1 °F 77% 30.17 in 10.0 mi Calm Calm - N/A   Clear
3:53 AM 48.9 °F 44.1 °F 83% 30.16 in 10.0 mi Calm Calm - N/A   Clear
4:53 AM 50.0 °F 46.0 °F 86% 30.17 in 10.0 mi Calm Calm - N/A   Clear
5:53 AM 50.0 °F 46.9 °F 89% 30.16 in 10.0 mi Calm Calm - N/A   Clear
6:53 AM 50.0 °F 46.9 °F 89% 30.17 in 10.0 mi East 3.5 mph - N/A   Clear
7:53 AM 57.0 °F 48.9 °F 74% 30.18 in 10.0 mi ENE 4.6 mph - N/A   Clear
8:53 AM 61.0 °F 50.0 °F 67% 30.21 in 10.0 mi NE 8.1 mph - N/A   Clear
9:53 AM 66.0 °F 50.0 °F 56% 30.21 in 10.0 mi NE 10.4 mph - N/A   Clear
10:53 AM 70.0 °F 46.9 °F 44% 30.20 in 10.0 mi ENE 13.8 mph 18.4 mph N/A   Clear
11:53 AM 71.1 °F 46.9 °F 42% 30.20 in 10.0 mi ENE 12.7 mph 18.4 mph N/A   Clear
12:53 PM 73.0 °F 48.0 °F 41% 30.18 in 10.0 mi East 8.1 mph - N/A   Clear
1:53 PM 73.9 °F 48.0 °F 40% 30.16 in 10.0 mi East 8.1 mph 18.4 mph N/A   Clear
2:53 PM 75.0 °F 46.9 °F 37% 30.14 in 10.0 mi NNE 8.1 mph - N/A   Clear
3:53 PM 75.0 °F 46.9 °F 37% 30.12 in 10.0 mi ESE 5.8 mph - N/A   Clear
4:53 PM 75.9 °F 46.9 °F 36% 30.10 in 10.0 mi ESE 4.6 mph - N/A   Clear
5:53 PM 75.0 °F 46.9 °F 37% 30.10 in 10.0 mi ENE 8.1 mph - N/A   Clear
6:53 PM 73.0 °F 46.9 °F 39% 30.11 in 10.0 mi East 8.1 mph - N/A   Clear
7:53 PM 69.1 °F 48.0 °F 47% 30.12 in 10.0 mi East 6.9 mph - N/A   Clear
8:53 PM 66.0 °F 50.0 °F 56% 30.13 in 10.0 mi East 6.9 mph - N/A   Clear
9:53 PM 64.0 °F 50.0 °F 60% 30.14 in 10.0 mi East 5.8 mph - N/A   Clear
10:53 PM 61.0 °F 50.0 °F 67% 30.14 in 10.0 mi ESE 5.8 mph - N/A   Clear
11:53 PM 61.0 °F 51.1 °F 70% 30.14 in 10.0 mi East 4.6 mph - N/A   Clear